Regional Weather Roundup
Issued by NWS Boston, MA

Home | Current Version | Previous Version | Text Only | Print | Product List | Glossary On
Versions: 1 2 3 4 5 6 7 8 9 10 11 12 13 14 15 16 17 18 19 20 21 22 23 24 25 26 27 28 29 30 31 32 33 34 35 36 37 38 39 40 41 42 43 44 45 46 47 48 49 50
000
ASUS41 KBOX 120010
RWRBOX

REGIONAL WEATHER ROUNDUP
NATIONAL WEATHER SERVICE TAUNTON MA
700 PM EST THU FEB 11 2016

NOTE:  "FAIR" INDICATES FEW OR NO CLOUDS BELOW 12,000 FEET WITH NO
SIGNIFICANT WEATHER AND/OR OBSTRUCTIONS TO VISIBILITY.  THE FOLLOWING
OBSERVATION LOCATIONS DO NOT REPORT PRESENT WEATHER...PROVINCETOWN...
SMITHFIELD...BLOCK ISLAND...KEENE...AND OXFORD.

MAZALL-120100-
EASTERN MASSACHUSETTS

CITY           SKY/WX    TMP DP  RH WIND       PRES   REMARKS
BOSTON         PTCLDY    17  -3  41 W24G32    29.89R WCI  -1
6HR MIN TEMP:  17; 6HR MAX TEMP:  27;

BEVERLY        CLEAR     16  -4  41 W14G25    29.86R WCI   2
LAWRENCE       CLEAR     16  -2  45 W22G33    29.87R WCI  -2
BEDFORD        CLEAR     14  -6  40 W15G28    29.89R WCI  -1
BLUE HILL        N/A     12  -4  48 W28G44    29.83R WCI  -9
NORWOOD        FLURRIES  16  -5  39 W25G38    29.91R WCI  -3
MARSHFIELD     CLEAR     19   0  42 W13G24    29.90R WCI   7
PLYMOUTH       MOCLDY    17  -1  45 W18G31    29.88R WCI   1
TAUNTON        CLEAR     18  -6  34 W21G31    29.91R WCI   1
NEW BEDFORD    CLEAR     18   0  45 W18G30    29.91R WCI   2
$$

MAZALL-120100-
CAPE COD AND THE ISLANDS

CITY           SKY/WX    TMP DP  RH WIND       PRES   REMARKS
FALMOUTH       PTCLDY    18   1  49 W23G36    29.88R WCI   0
HYANNIS        CLEAR     20   1  43 W14G25    29.85R WCI   7
CHATHAM        PTCLDY    20   1  43 W10G17    29.86R WCI   9
PROVINCETOWN   PTCLDY    21   6  52 W29G40    29.85R WCI   3
NANTUCKET      MOCLDY    24   6  46 NW23G33   29.87R WCI   9
MARTHAS VNYRD  PTCLDY    21   2  43 W29G38    29.90R WCI   3
$$

MAZALL-120100-
CENTRAL AND WESTERN MASSACHUSETTS

CITY           SKY/WX    TMP DP  RH WIND       PRES   REMARKS
WORCESTER      CLEAR      9  -6  50 W22G35    29.84R WCI -11
6HR MIN TEMP:   9; 6HR MAX TEMP:  20; 6HR PCP: TRACE;

FITCHBURG      CLEAR     13  -5  44 W14G29    29.90R WCI  -2
ORANGE         CLEAR     10  -4  53 W20G28    29.92R WCI  -9
SPRINGFIELD    CLEAR     12   0  56 NW14G24   29.97R WCI  -3
WESTFIELD      CLEAR     13  -3  49 W15G25    29.98R WCI  -3
NORTH ADAMS    CLOUDY    10  -5  50 W17G35    29.96R WCI  -8
PITTSFIELD     CLOUDY     8  -3  61 W18G37    29.90R WCI -11
$$

RIZALL-120100-
RHODE ISLAND

CITY           SKY/WX    TMP DP  RH WIND       PRES   REMARKS
PROVIDENCE     PTCLDY    17  -3  41 NW17G35   29.95R WCI   1
6HR MIN TEMP:  17; 6HR MAX TEMP:  26; 6HR PCP: TRACE;

NEWPORT        CLEAR     18   3  52 NW22G35   29.93R WCI   1
BLOCK ISLAND   MOCLDY    21   7  53 NW16G29   29.93R WCI   7
SMITHFIELD     CLEAR     12  -6  44 W12G25    29.89R WCI  -2
WESTERLY       CLEAR     19   2  47 NW8G23    29.97R WCI   9
$$

CTZALL-120100-
CONNECTICUT

CITY           SKY/WX    TMP DP  RH WIND       PRES   REMARKS
BRADLEY INTL   PTCLDY    14  -2  49 W22G29    29.99R WCI  -4
6HR MIN TEMP:  13; 6HR MAX TEMP:  23; 6HR PCP: TRACE;

HARTFORD       PTCLDY    17  -1  45 NW12      30.02R WCI   4
BRIDGEPORT     CLEAR     20  -3  36 NW28G38   30.03R WCI   2
DANBURY        CLEAR     16  -6  37 W12G29    30.03R WCI   3
GROTON         PTCLDY    18   4  54 NW20G25   29.98R WCI   2
NEW HAVEN      PTCLDY    20  -1  40 NW16G25   30.03R WCI   6
CHESTER        FAIR      19  -4  35 NW15G28   29.97R WCI   5
MERIDEN        CLEAR     19  -6  33 NW18G29   30.01R WCI   4
WILLIMANTIC    CLEAR     16   0  49 NW8       29.98R WCI   5
OXFORD         MOCLDY    16  -9  32 NW15G29   29.97R WCI   1
$$

MEZ002-015-021-024-NHZ003-005-008-011-012-014-VTZ005-008-120100-
NORTHERN NEW ENGLAND

CITY           SKY/WX    TMP DP  RH WIND       PRES   REMARKS
PORTLAND ME    CLOUDY    19   8  62 NW13G24   29.78R WCI   6
6HR MIN TEMP:  19; 6HR MAX TEMP:  29; 6HR PCP:  0.11;

BANGOR ME      MOCLDY    18   5  57 NW17      29.71R WCI   3
CONCORD NH     PTCLDY    15  -3  44 NW22G35   29.85R WCI  -3
MANCHESTER NH  PTCLDY    16  -2  45 W13G24    29.86R WCI   2
NASHUA NH      CLEAR     14   0  52 W10G17    29.89R WCI   1
PORTSMOUTH NH  PTCLDY    18   3  52 W23G29    29.80R WCI   0
JAFFREY NH     CLEAR      9  -4  55 W9        29.83R WCI  -4
KEENE NH       PTCLDY    12  -2  52 CALM      29.90R
BURLINGTON VT  LGT SNOW   6  -4  63 NW15      30.00R WCI -12
MT. WASHINGTON NOT AVBL
$$

NYZ052-076-120100-
EASTERN NEW YORK

CITY           SKY/WX    TMP DP  RH WIND       PRES   REMARKS
ALBANY         FLURRIES  12   0  58 W14G37    30.04R WCI  -3
6HR MIN TEMP:  12; 6HR MAX TEMP:  21; 6HR PCP: TRACE;

NEW YORK CITY  PTCLDY    23  -2  33 NW23G37   30.07R WCI   7
6HR MIN TEMP:  23; 6HR MAX TEMP:  27;

$$

ANZALL-120100-
MARINE OBSERVATIONS

STATION/POSITION TIME  TEMP    WIND        PRES    VSBY  WAVE
                       AIR SEA DIR/SP/G                  HT/PER
                 (UTC) (F)     (DEG/KT/KT) (MB)    (MI)  (FT/S)
BOSTON BUOY      2350   22 41  290/ 27/ 33 1010.4R         5/ 5
BUZZARDS BAY     2300          290/ 33/ 35 1011.8R
NANTUCKET SOUND  2350   25 39  300/ 25/ 31 1010.5R         4/ 5
MASS BAY-STELLWA 2304   24 41  280/ 25/ 33   N/A    1 7/8  5/ 4
ISLE OF SHOALS   0000   20     280/ 29/ 33 1008.1R
S OF BLOCK IS    NOT AVBL
$$

......................KEY.........................
  SKY/WX - SKY CONDITION/PRESENT WEATHER
  TMP    - TEMPERATURE IN FAHRENHEIT
  DWPT   - DEWPOINT IN FAHRENHEIT
  RH     - RELATIVE HUMIDITY IN PERCENT
  WIND   - DIRECTION AND SPEED IN MPH
  PRES   - MEAN SEA LEVEL PRESSURE IN INCHES OF HG
  WCI    - WIND CHILL INDEX
  VSB    - VISIBILITY IN MILES
  HX     - HEAT INDEX
  TC     - TEMPERATURE IN CELSIUS
  VRB    - VARIABLE WIND DIRECTION
  N/A    - NOT AVAILABLE



USA.gov is the U.S. government's official web portal to all federal, state and local government web resources and services.